Location: Unspecified
(42.7170°S, 0.0000°E)
Time: 14:39:21
(UTC+00:00)

N. Korean satellite - Pass Details

Date: 30 May 2019
Orbit: 455 x 510 km, 97.2° (Epoch: 24 June)

Event Time Altitude Azimuth Distance (km) Brightness Sun altitude
Rises 04:23:50 0° 46° (NE) 2,492 10.8 -31.5°
Reaches altitude 10° 04:26:13 10° 63° (ENE) 1,633 10.0 -31.1°
Enters shadow 04:28:12 19° 96° (E) 1,183 9.2 -30.7°
